Time,TemperatureF,DewpointF,PressureIn,WindDirection,WindDirectionDegrees,WindSpeedMPH,WindSpeedGustMPH,Humidity,HourlyPrecipIn,Conditions,Clouds,dailyrainin,SolarRadiationWatts/m^2,SoftwareType,DateUTC
2017-05-22 00:04:00,53.3,47.6,28.14,WNW,288,2.0,2.0,81,0.00,,,0.00,1308,Wunderground v.1.15,2017-05-22 05:04:00,
2017-05-22 00:10:00,53.3,47.6,28.14,WNW,288,2.0,3.0,81,0.00,,,0.00,1311,Wunderground v.1.15,2017-05-22 05:10:00,
2017-05-22 00:16:00,53.2,47.2,28.14,WNW,288,2.0,4.0,80,0.00,,,0.00,1308,Wunderground v.1.15,2017-05-22 05:16:00,
2017-05-22 00:22:00,53.2,47.2,28.14,WNW,288,2.0,4.0,80,0.00,,,0.00,1308,Wunderground v.1.15,2017-05-22 05:22:00,
2017-05-22 00:28:00,53.3,47.3,28.14,WNW,288,1.0,2.0,80,0.00,,,0.00,1311,Wunderground v.1.15,2017-05-22 05:28:00,
2017-05-22 00:34:00,53.2,47.2,28.14,WNW,288,0.0,0.0,80,0.00,,,0.00,1313,Wunderground v.1.15,2017-05-22 05:34:00,
2017-05-22 00:40:00,53.0,47.0,28.14,WNW,288,0.0,0.0,80,0.00,,,0.00,1301,Wunderground v.1.15,2017-05-22 05:40:00,
2017-05-22 00:46:00,52.8,46.8,28.14,WNW,288,0.0,0.0,80,0.00,,,0.00,1290,Wunderground v.1.15,2017-05-22 05:46:00,
2017-05-22 00:52:00,52.6,46.6,28.14,WNW,288,0.0,0.0,80,0.00,,,0.00,1281,Wunderground v.1.15,2017-05-22 05:52:00,
2017-05-22 00:58:00,52.4,46.4,28.14,WNW,288,0.0,4.0,80,0.00,,,0.00,1281,Wunderground v.1.15,2017-05-22 05:58:00,
2017-05-22 01:04:00,52.2,46.5,28.14,WNW,288,0.0,4.0,81,0.00,,,0.00,1274,Wunderground v.1.15,2017-05-22 06:04:00,
2017-05-22 01:10:00,52.1,46.4,28.14,WNW,288,0.0,4.0,81,0.00,,,0.00,1271,Wunderground v.1.15,2017-05-22 06:10:00,
2017-05-22 01:16:00,52.1,46.4,28.14,WNW,288,0.0,4.0,81,0.00,,,0.00,1278,Wunderground v.1.15,2017-05-22 06:16:00,
2017-05-22 01:22:00,52.2,46.5,28.14,WNW,288,1.0,4.0,81,0.00,,,0.00,1290,Wunderground v.1.15,2017-05-22 06:22:00,
2017-05-22 01:28:00,52.7,47.0,28.14,WNW,287,3.0,6.0,81,0.00,,,0.00,1322,Wunderground v.1.15,2017-05-22 06:28:00,
2017-05-22 01:34:00,53.3,47.0,28.14,WNW,287,3.0,3.0,79,0.00,,,0.00,1350,Wunderground v.1.15,2017-05-22 06:34:00,
2017-05-22 01:40:00,53.7,46.7,28.14,WNW,287,3.0,5.0,77,0.00,,,0.00,1348,Wunderground v.1.15,2017-05-22 06:40:00,
2017-05-22 01:46:00,53.9,46.5,28.14,WNW,287,3.0,3.0,76,0.00,,,0.00,1357,Wunderground v.1.15,2017-05-22 06:46:00,
2017-05-22 01:52:00,54.0,46.6,28.14,WNW,287,1.0,3.0,76,0.00,,,0.00,1345,Wunderground v.1.15,2017-05-22 06:52:00,
2017-05-22 01:58:00,53.8,46.4,28.14,WNW,287,0.0,5.0,76,0.00,,,0.00,1332,Wunderground v.1.15,2017-05-22 06:58:00,
2017-05-22 02:04:00,53.4,46.0,28.14,WNW,287,1.0,5.0,76,0.00,,,0.00,1320,Wunderground v.1.15,2017-05-22 07:04:00,
2017-05-22 02:10:00,53.5,46.1,28.14,WNW,286,3.0,6.0,76,0.00,,,0.00,1334,Wunderground v.1.15,2017-05-22 07:10:00,
2017-05-22 02:16:00,53.7,46.3,28.14,WNW,286,4.0,6.0,76,0.00,,,0.00,1350,Wunderground v.1.15,2017-05-22 07:16:00,
2017-05-22 02:22:00,53.9,46.5,28.14,WNW,286,3.0,6.0,76,0.00,,,0.00,1354,Wunderground v.1.15,2017-05-22 07:22:00,
2017-05-22 02:28:00,53.9,46.5,28.14,WNW,286,2.0,3.0,76,0.00,,,0.00,1352,Wunderground v.1.15,2017-05-22 07:28:00,
2017-05-22 02:34:00,53.7,46.3,28.14,West,281,3.0,4.0,76,0.00,,,0.00,1341,Wunderground v.1.15,2017-05-22 07:34:00,
2017-05-22 02:40:00,53.9,46.5,28.14,West,277,4.0,4.0,76,0.00,,,0.00,1350,Wunderground v.1.15,2017-05-22 07:40:00,
2017-05-22 02:46:00,54.0,47.0,28.14,West,277,4.0,5.0,77,0.00,,,0.00,1355,Wunderground v.1.15,2017-05-22 07:46:00,
2017-05-22 02:58:00,54.0,47.6,28.14,West,272,6.0,9.0,79,0.00,,,0.00,1352,Wunderground v.1.15,2017-05-22 07:58:00,
2017-05-22 03:04:00,53.9,47.5,28.14,West,272,5.0,9.0,79,0.00,,,0.00,1355,Wunderground v.1.15,2017-05-22 08:04:00,
2017-05-22 03:10:00,53.6,47.6,28.14,West,271,5.0,9.0,80,0.00,,,0.00,1350,Wunderground v.1.15,2017-05-22 08:10:00,
2017-05-22 03:16:00,53.3,47.6,28.14,West,272,5.0,5.0,81,0.00,,,0.00,1343,Wunderground v.1.15,2017-05-22 08:16:00,
2017-05-22 03:22:00,53.1,48.1,28.14,West,272,6.0,7.0,83,0.00,,,0.00,1339,Wunderground v.1.15,2017-05-22 08:22:00,
2017-05-22 03:28:00,53.1,48.4,28.14,West,272,6.0,9.0,84,0.00,,,0.00,1341,Wunderground v.1.15,2017-05-22 08:28:00,
2017-05-22 03:34:00,53.4,49.0,28.14,West,266,8.0,9.0,85,0.00,,,0.00,1352,Wunderground v.1.15,2017-05-22 08:34:00,
2017-05-22 03:40:00,53.4,49.0,28.14,West,265,8.0,10.0,85,0.00,,,0.00,1361,Wunderground v.1.15,2017-05-22 08:40:00,
2017-05-22 03:46:00,53.6,49.5,28.14,West,265,8.0,11.0,86,0.00,,,0.00,1361,Wunderground v.1.15,2017-05-22 08:46:00,
2017-05-22 03:52:00,53.9,49.8,28.14,West,259,9.0,11.0,86,0.00,,,0.00,1368,Wunderground v.1.15,2017-05-22 08:52:00,
2017-05-22 03:58:00,54.1,50.0,28.14,WSW,255,9.0,12.0,86,0.00,,,0.00,1368,Wunderground v.1.15,2017-05-22 08:58:00,
2017-05-22 04:04:00,54.3,50.2,28.14,WSW,254,9.0,12.0,86,0.00,,,0.00,1378,Wunderground v.1.15,2017-05-22 09:04:00,
2017-05-22 04:10:00,54.3,50.2,28.14,WSW,254,9.0,12.0,86,0.00,,,0.00,1380,Wunderground v.1.15,2017-05-22 09:10:00,
2017-05-22 04:16:00,54.4,50.3,28.14,WSW,253,9.0,12.0,86,0.00,,,0.00,1378,Wunderground v.1.15,2017-05-22 09:16:00,
2017-05-22 04:22:00,54.4,50.3,28.14,WSW,251,10.0,12.0,86,0.00,,,0.00,1378,Wunderground v.1.15,2017-05-22 09:22:00,
2017-05-22 04:28:00,54.5,50.1,28.14,WSW,249,10.0,13.0,85,0.00,,,0.00,1382,Wunderground v.1.15,2017-05-22 09:28:00,
2017-05-22 04:34:00,54.5,50.1,28.14,WSW,248,10.0,10.0,85,0.00,,,0.00,1382,Wunderground v.1.15,2017-05-22 09:34:00,
2017-05-22 04:40:00,54.7,50.0,28.14,WSW,248,10.0,12.0,84,0.00,,,0.00,1387,Wunderground v.1.15,2017-05-22 09:40:00,
2017-05-22 04:46:00,54.8,50.1,28.14,WSW,248,10.0,10.0,84,0.00,,,0.00,1389,Wunderground v.1.15,2017-05-22 09:46:00,
2017-05-22 04:52:00,54.9,50.2,28.14,WSW,248,10.0,10.0,84,0.00,,,0.00,1380,Wunderground v.1.15,2017-05-22 09:52:00,
2017-05-22 04:58:00,54.8,50.1,28.14,WSW,248,9.0,14.0,84,0.00,,,0.00,1383,Wunderground v.1.15,2017-05-22 09:58:00,
2017-05-22 05:04:00,54.6,49.9,28.14,WSW,248,9.0,9.0,84,0.00,,,0.00,1373,Wunderground v.1.15,2017-05-22 10:04:00,
2017-05-22 05:10:00,54.4,50.0,28.14,WSW,248,8.0,14.0,85,0.00,,,0.00,1361,Wunderground v.1.15,2017-05-22 10:10:00,
2017-05-22 05:14:00,54.4,50.0,28.14,WSW,248,8.0,8.0,85,0.00,,,0.00,1361,Wunderground v.1.15,2017-05-22 10:14:00,
2017-05-22 05:20:00,54.2,49.8,28.14,WSW,248,7.0,10.0,85,0.00,,,0.00,1336,Wunderground v.1.15,2017-05-22 10:20:00,
2017-05-22 05:26:00,54.0,49.6,28.14,WSW,248,7.0,7.0,85,0.00,,,0.00,1313,Wunderground v.1.15,2017-05-22 10:26:00,
2017-05-22 05:32:00,53.7,49.6,28.14,WSW,248,5.0,7.0,86,0.00,,,0.00,1269,Wunderground v.1.15,2017-05-22 10:32:00,
2017-05-22 05:38:00,53.5,49.4,28.14,WSW,248,5.0,5.0,86,0.00,,,0.00,1234,Wunderground v.1.15,2017-05-22 10:38:00,
2017-05-22 05:44:00,53.2,49.4,28.14,WSW,248,5.0,5.0,87,0.00,,,0.00,1183,Wunderground v.1.15,2017-05-22 10:44:00,
2017-05-22 05:50:00,52.8,49.0,28.14,WSW,248,4.0,5.0,87,0.00,,,0.00,1141,Wunderground v.1.15,2017-05-22 10:50:00,
2017-05-22 05:56:00,52.5,49.0,28.14,WSW,248,4.0,17.0,88,0.00,,,0.00,1106,Wunderground v.1.15,2017-05-22 10:56:00,
2017-05-22 06:02:00,52.2,48.8,28.14,WSW,248,2.0,17.0,88,0.00,,,0.00,1069,Wunderground v.1.15,2017-05-22 11:02:00,
2017-05-22 06:08:00,52.2,48.8,28.14,WSW,248,2.0,17.0,88,0.00,,,0.00,1056,Wunderground v.1.15,2017-05-22 11:08:00,
2017-05-22 06:14:00,52.0,48.6,28.14,WSW,248,4.0,17.0,88,0.00,,,0.00,1025,Wunderground v.1.15,2017-05-22 11:14:00,
2017-05-22 06:20:00,51.8,48.7,28.14,WSW,248,4.0,17.0,89,0.00,,,0.00,997,Wunderground v.1.15,2017-05-22 11:20:00,
2017-05-22 06:26:00,51.7,48.6,28.14,WSW,248,3.0,4.0,89,0.00,,,0.00,965,Wunderground v.1.15,2017-05-22 11:26:00,
2017-05-22 06:32:00,51.6,48.5,28.14,WSW,248,2.0,4.0,89,0.00,,,0.00,935,Wunderground v.1.15,2017-05-22 11:32:00,
2017-05-22 06:38:00,51.5,48.4,28.14,WSW,248,1.0,1.0,89,0.00,,,0.00,916,Wunderground v.1.15,2017-05-22 11:38:00,
2017-05-22 06:44:00,51.6,48.8,28.14,WSW,248,0.0,0.0,90,0.00,,,0.00,902,Wunderground v.1.15,2017-05-22 11:44:00,
2017-05-22 06:50:00,51.8,49.0,28.14,WSW,248,0.0,3.0,90,0.00,,,0.00,900,Wunderground v.1.15,2017-05-22 11:50:00,
2017-05-22 06:56:00,51.9,49.1,28.14,WSW,248,1.0,11.0,90,0.00,,,0.00,891,Wunderground v.1.15,2017-05-22 11:56:00,
2017-05-22 07:02:00,52.1,49.0,28.14,WSW,248,0.0,11.0,89,0.00,,,0.00,888,Wunderground v.1.15,2017-05-22 12:02:00,
2017-05-22 07:08:00,52.1,49.3,28.14,WSW,248,1.0,11.0,90,0.00,,,0.00,867,Wunderground v.1.15,2017-05-22 12:08:00,
2017-05-22 07:14:00,52.3,49.5,28.14,WSW,248,2.0,11.0,90,0.00,,,0.00,863,Wunderground v.1.15,2017-05-22 12:14:00,
2017-05-22 07:20:00,52.4,49.3,28.14,WSW,248,2.0,11.0,89,0.00,,,0.00,856,Wunderground v.1.15,2017-05-22 12:20:00,
2017-05-22 07:26:00,52.5,49.4,28.14,WSW,248,2.0,2.0,89,0.00,,,0.00,856,Wunderground v.1.15,2017-05-22 12:26:00,
2017-05-22 07:32:00,52.7,49.5,28.14,WSW,248,1.0,2.0,89,0.00,,,0.00,849,Wunderground v.1.15,2017-05-22 12:32:00,
2017-05-22 07:38:00,52.8,49.6,28.14,WSW,248,0.0,1.0,89,0.00,,,0.00,849,Wunderground v.1.15,2017-05-22 12:38:00,
2017-05-22 07:44:00,52.9,49.7,28.14,WSW,248,0.0,1.0,89,0.00,,,0.00,851,Wunderground v.1.15,2017-05-22 12:44:00,
2017-05-22 07:50:00,53.1,49.9,28.14,WSW,248,2.0,4.0,89,0.00,,,0.00,847,Wunderground v.1.15,2017-05-22 12:50:00,
2017-05-22 07:56:00,53.3,50.1,28.14,WSW,248,3.0,7.0,89,0.00,,,0.00,847,Wunderground v.1.15,2017-05-22 12:56:00,
2017-05-22 08:02:00,53.6,50.4,28.14,WSW,248,3.0,7.0,89,0.00,,,0.00,851,Wunderground v.1.15,2017-05-22 13:02:00,
2017-05-22 08:08:00,53.9,50.4,28.14,WSW,248,4.0,7.0,88,0.00,,,0.00,856,Wunderground v.1.15,2017-05-22 13:08:00,
2017-05-22 08:14:00,54.3,50.5,28.14,WSW,248,5.0,10.0,87,0.00,,,0.00,865,Wunderground v.1.15,2017-05-22 13:14:00,
2017-05-22 08:20:00,54.5,50.4,28.14,WSW,249,5.0,10.0,86,0.00,,,0.00,870,Wunderground v.1.15,2017-05-22 13:20:00,
2017-05-22 08:26:00,54.7,50.3,28.14,WSW,249,5.0,6.0,85,0.00,,,0.00,865,Wunderground v.1.15,2017-05-22 13:26:00,
2017-05-22 08:32:00,54.9,50.5,28.14,WSW,249,3.0,6.0,85,0.00,,,0.00,874,Wunderground v.1.15,2017-05-22 13:32:00,
2017-05-22 08:38:00,55.1,51.0,28.14,WSW,249,3.0,3.0,86,0.00,,,0.00,879,Wunderground v.1.15,2017-05-22 13:38:00,
2017-05-22 08:44:00,55.3,50.5,28.14,WSW,252,4.0,9.0,84,0.00,,,0.00,874,Wunderground v.1.15,2017-05-22 13:44:00,
2017-05-22 08:50:00,55.3,50.2,28.14,West,259,7.0,11.0,83,0.00,,,0.00,879,Wunderground v.1.15,2017-05-22 13:50:00,
2017-05-22 08:56:00,55.6,50.5,28.14,West,265,9.0,10.0,83,0.00,,,0.00,877,Wunderground v.1.15,2017-05-22 13:56:00,
2017-05-22 09:02:00,56.5,50.7,28.14,West,268,9.0,10.0,81,0.00,,,0.00,863,Wunderground v.1.15,2017-05-22 14:02:00,
2017-05-22 09:08:00,57.2,51.1,28.14,West,281,9.0,12.0,80,0.00,,,0.00,874,Wunderground v.1.15,2017-05-22 14:08:00,
2017-05-22 09:14:00,57.8,50.6,28.14,West,280,9.0,10.0,77,0.00,,,0.00,939,Wunderground v.1.15,2017-05-22 14:14:00,
2017-05-22 09:20:00,58.2,51.7,28.14,West,280,9.0,10.0,79,0.00,,,0.00,896,Wunderground v.1.15,2017-05-22 14:20:00,
2017-05-22 09:26:00,58.4,51.2,28.14,West,281,9.0,9.0,77,0.00,,,0.00,914,Wunderground v.1.15,2017-05-22 14:26:00,
2017-05-22 09:32:00,58.9,51.7,28.14,West,281,8.0,9.0,77,0.00,,,0.00,926,Wunderground v.1.15,2017-05-22 14:32:00,
2017-05-22 09:38:00,59.3,52.4,28.14,West,281,7.0,8.0,78,0.00,,,0.00,930,Wunderground v.1.15,2017-05-22 14:38:00,
2017-05-22 09:44:00,59.9,52.3,28.14,West,281,8.0,10.0,76,0.00,,,0.00,951,Wunderground v.1.15,2017-05-22 14:44:00,
2017-05-22 09:50:00,60.6,49.6,28.14,West,280,10.0,11.0,67,0.00,,,0.00,958,Wunderground v.1.15,2017-05-22 14:50:00,
2017-05-22 09:56:00,60.9,50.3,28.14,West,280,10.0,16.0,68,0.00,,,0.00,1018,Wunderground v.1.15,2017-05-22 14:56:00,
2017-05-22 10:02:00,61.6,50.9,28.14,West,278,8.0,16.0,68,0.00,,,0.00,1023,Wunderground v.1.15,2017-05-22 15:02:00,
2017-05-22 10:08:00,62.1,51.4,28.14,West,277,8.0,16.0,68,0.00,,,0.00,991,Wunderground v.1.15,2017-05-22 15:08:00,
2017-05-22 10:14:00,62.6,51.5,28.14,West,276,8.0,16.0,67,0.00,,,0.00,1044,Wunderground v.1.15,2017-05-22 15:14:00,
2017-05-22 10:20:00,62.6,51.1,28.14,West,276,9.0,16.0,66,0.00,,,0.00,1062,Wunderground v.1.15,2017-05-22 15:20:00,
2017-05-22 10:26:00,62.7,51.6,28.14,West,276,8.0,9.0,67,0.00,,,0.00,1058,Wunderground v.1.15,2017-05-22 15:26:00,
2017-05-22 10:32:00,63.2,51.2,28.14,West,276,8.0,9.0,65,0.00,,,0.00,1023,Wunderground v.1.15,2017-05-22 15:32:00,
2017-05-22 10:38:00,63.3,50.5,28.14,West,277,8.0,10.0,63,0.00,,,0.00,1085,Wunderground v.1.15,2017-05-22 15:38:00,
2017-05-22 10:44:00,63.4,51.4,28.14,West,277,8.0,8.0,65,0.00,,,0.00,1032,Wunderground v.1.15,2017-05-22 15:44:00,
2017-05-22 10:50:00,63.6,51.6,28.14,West,276,8.0,11.0,65,0.00,,,0.00,1023,Wunderground v.1.15,2017-05-22 15:50:00,
2017-05-22 10:56:00,64.2,50.9,28.14,West,276,8.0,15.0,62,0.00,,,0.00,1118,Wunderground v.1.15,2017-05-22 15:56:00,
2017-05-22 11:02:00,64.6,50.4,28.14,West,275,8.0,15.0,60,0.00,,,0.00,1129,Wunderground v.1.15,2017-05-22 16:02:00,
2017-05-22 11:08:00,64.8,51.5,28.14,West,275,9.0,15.0,62,0.00,,,0.00,1072,Wunderground v.1.15,2017-05-22 16:08:00,
2017-05-22 11:14:00,65.4,50.7,28.14,West,275,7.0,15.0,59,0.00,,,0.00,1097,Wunderground v.1.15,2017-05-22 16:14:00,
2017-05-22 11:20:00,65.3,50.6,28.14,West,275,8.0,15.0,59,0.00,,,0.00,1093,Wunderground v.1.15,2017-05-22 16:20:00,
2017-05-22 11:26:00,66.0,50.3,28.14,West,273,8.0,12.0,57,0.00,,,0.00,1167,Wunderground v.1.15,2017-05-22 16:26:00,
2017-05-22 11:32:00,66.3,50.1,28.14,West,271,8.0,12.0,56,0.00,,,0.00,1121,Wunderground v.1.15,2017-05-22 16:32:00,
2017-05-22 11:38:00,66.8,50.1,28.14,West,271,8.0,11.0,55,0.00,,,0.00,1155,Wunderground v.1.15,2017-05-22 16:38:00,
2017-05-22 11:44:00,66.8,49.6,28.14,West,267,8.0,9.0,54,0.00,,,0.00,1144,Wunderground v.1.15,2017-05-22 16:44:00,
2017-05-22 11:50:00,67.1,51.4,28.14,West,266,9.0,9.0,57,0.00,,,0.00,1151,Wunderground v.1.15,2017-05-22 16:50:00,
2017-05-22 11:56:00,67.8,52.0,28.14,West,266,8.0,14.0,57,0.00,,,0.00,1222,Wunderground v.1.15,2017-05-22 16:56:00,
2017-05-22 12:02:00,67.6,52.3,28.14,West,266,7.0,14.0,58,0.00,,,0.00,1223,Wunderground v.1.15,2017-05-22 17:02:00,
2017-05-22 12:08:00,67.7,47.8,28.14,West,261,9.0,14.0,49,0.00,,,0.00,1171,Wunderground v.1.15,2017-05-22 17:08:00,
2017-05-22 12:14:00,67.9,49.6,28.14,West,260,9.0,9.0,52,0.00,,,0.00,1218,Wunderground v.1.15,2017-05-22 17:14:00,
2017-05-22 12:20:00,68.3,50.0,28.14,West,270,8.0,10.0,52,0.00,,,0.00,1185,Wunderground v.1.15,2017-05-22 17:20:00,
2017-05-22 12:26:00,68.3,49.5,28.14,West,269,10.0,10.0,51,0.00,,,0.00,1239,Wunderground v.1.15,2017-05-22 17:26:00,
2017-05-22 12:32:00,68.3,51.5,28.14,West,270,9.0,10.0,55,0.00,,,0.00,1179,Wunderground v.1.15,2017-05-22 17:32:00,
2017-05-22 12:38:00,68.6,50.8,28.14,WSW,256,10.0,11.0,53,0.00,,,0.00,1188,Wunderground v.1.15,2017-05-22 17:38:00,
2017-05-22 12:44:00,68.9,49.5,28.14,West,270,11.0,11.0,50,0.00,,,0.00,1267,Wunderground v.1.15,2017-05-22 17:44:00,
2017-05-22 12:56:00,69.2,49.2,28.14,West,259,11.0,17.0,49,0.00,,,0.00,1225,Wunderground v.1.15,2017-05-22 17:56:00,
2017-05-22 13:02:00,68.9,48.9,28.14,West,259,10.0,17.0,49,0.00,,,0.00,1208,Wunderground v.1.15,2017-05-22 18:02:00,
2017-05-22 13:08:00,69.1,49.1,28.14,WSW,258,10.0,17.0,49,0.00,,,0.00,1230,Wunderground v.1.15,2017-05-22 18:08:00,
2017-05-22 13:14:00,69.4,51.0,28.14,WSW,257,11.0,11.0,52,0.00,,,0.00,1222,Wunderground v.1.15,2017-05-22 18:14:00,
2017-05-22 13:20:00,69.7,49.1,28.14,WSW,255,10.0,11.0,48,0.00,,,0.00,1230,Wunderground v.1.15,2017-05-22 18:20:00,
2017-05-22 13:26:00,70.0,48.8,28.14,WSW,253,11.0,13.0,47,0.00,,,0.00,1297,Wunderground v.1.15,2017-05-22 18:26:00,
2017-05-22 13:32:00,69.7,49.1,28.14,WSW,243,12.0,13.0,48,0.00,,,0.00,1266,Wunderground v.1.15,2017-05-22 18:32:00,
2017-05-22 13:38:00,69.3,49.3,28.14,WSW,242,11.0,12.0,49,0.00,,,0.00,1215,Wunderground v.1.15,2017-05-22 18:38:00,
2017-05-22 13:44:00,69.5,55.0,28.14,SW,225,11.0,11.0,60,0.00,,,0.00,1246,Wunderground v.1.15,2017-05-22 18:44:00,
2017-05-22 13:50:00,68.7,55.6,28.14,SSW,213,13.0,15.0,63,0.00,,,0.00,1223,Wunderground v.1.15,2017-05-22 18:50:00,
2017-05-22 13:56:00,68.4,55.7,28.14,SSW,203,15.0,15.0,64,0.00,,,0.00,1259,Wunderground v.1.15,2017-05-22 18:56:00,
2017-05-22 14:02:00,68.2,57.2,28.14,SSW,213,15.0,18.0,68,0.00,,,0.00,1248,Wunderground v.1.15,2017-05-22 19:02:00,
2017-05-22 14:08:00,67.5,54.9,28.14,SW,221,14.0,18.0,64,0.00,,,0.00,1230,Wunderground v.1.15,2017-05-22 19:08:00,
2017-05-22 14:14:00,67.3,56.4,28.14,SSW,207,14.0,19.0,68,0.00,,,0.00,1215,Wunderground v.1.15,2017-05-22 19:14:00,
2017-05-22 14:20:00,67.6,56.2,28.14,SW,219,15.0,19.0,67,0.00,,,0.00,1236,Wunderground v.1.15,2017-05-22 19:20:00,
2017-05-22 14:26:00,68.0,55.8,28.14,SSW,206,15.0,17.0,65,0.00,,,0.00,1246,Wunderground v.1.15,2017-05-22 19:26:00,
2017-05-22 14:32:00,68.4,56.6,28.14,SSW,203,14.0,17.0,66,0.00,,,0.00,1229,Wunderground v.1.15,2017-05-22 19:32:00,
2017-05-22 14:38:00,68.7,56.5,28.14,SW,236,14.0,17.0,65,0.00,,,0.00,1225,Wunderground v.1.15,2017-05-22 19:38:00,
2017-05-22 14:44:00,69.0,56.3,28.14,SW,232,14.0,20.0,64,0.00,,,0.00,1236,Wunderground v.1.15,2017-05-22 19:44:00,
2017-05-22 14:50:00,68.6,55.1,28.14,SW,229,14.0,20.0,62,0.00,,,0.00,1262,Wunderground v.1.15,2017-05-22 19:50:00,
2017-05-22 14:56:00,68.5,55.8,28.14,SSW,213,14.0,22.0,64,0.00,,,0.00,1215,Wunderground v.1.15,2017-05-22 19:56:00,
2017-05-22 15:02:00,69.0,56.3,28.14,SSW,202,14.0,22.0,64,0.00,,,0.00,1297,Wunderground v.1.15,2017-05-22 20:02:00,
2017-05-22 15:08:00,68.6,55.5,28.14,South,191,13.0,22.0,63,0.00,,,0.00,1246,Wunderground v.1.15,2017-05-22 20:08:00,
2017-05-22 15:14:00,67.9,54.4,28.14,SW,215,13.0,22.0,62,0.00,,,0.00,1252,Wunderground v.1.15,2017-05-22 20:14:00,
2017-05-22 15:20:00,67.5,54.5,28.14,SSW,209,13.0,22.0,63,0.00,,,0.00,1236,Wunderground v.1.15,2017-05-22 20:20:00,
2017-05-22 15:26:00,67.4,55.6,28.14,SSW,210,13.0,15.0,66,0.00,,,0.00,1225,Wunderground v.1.15,2017-05-22 20:26:00,
2017-05-22 15:32:00,67.4,54.8,28.14,SSW,207,13.0,16.0,64,0.00,,,0.00,1209,Wunderground v.1.15,2017-05-22 20:32:00,
2017-05-22 15:38:00,67.5,54.9,28.14,SSW,211,14.0,15.0,64,0.00,,,0.00,1245,Wunderground v.1.15,2017-05-22 20:38:00,
2017-05-22 15:44:00,67.2,54.6,28.14,SW,215,14.0,18.0,64,0.00,,,0.00,1229,Wunderground v.1.15,2017-05-22 20:44:00,
2017-05-22 15:50:00,66.8,55.1,28.14,SSW,202,15.0,18.0,66,0.00,,,0.00,1215,Wunderground v.1.15,2017-05-22 20:50:00,
2017-05-22 15:56:00,66.8,55.1,28.14,SSW,213,15.0,23.0,66,0.00,,,0.00,1213,Wunderground v.1.15,2017-05-22 20:56:00,
2017-05-22 16:02:00,67.0,55.3,28.14,SSW,196,12.0,23.0,66,0.00,,,0.00,1181,Wunderground v.1.15,2017-05-22 21:02:00,
2017-05-22 16:08:00,67.6,55.4,28.14,SSW,208,10.0,23.0,65,0.00,,,0.00,1271,Wunderground v.1.15,2017-05-22 21:08:00,
2017-05-22 16:14:00,67.9,54.8,28.14,SSW,210,12.0,23.0,63,0.00,,,0.00,1264,Wunderground v.1.15,2017-05-22 21:14:00,
2017-05-22 16:20:00,68.3,55.2,28.14,SSW,210,13.0,23.0,63,0.00,,,0.00,1281,Wunderground v.1.15,2017-05-22 21:20:00,
2017-05-22 16:26:00,68.3,53.9,28.14,SW,218,15.0,15.0,60,0.00,,,0.00,1273,Wunderground v.1.15,2017-05-22 21:26:00,
2017-05-22 16:32:00,67.9,54.0,28.14,SSW,209,13.0,15.0,61,0.00,,,0.00,1292,Wunderground v.1.15,2017-05-22 21:32:00,
2017-05-22 16:38:00,67.6,53.2,28.14,SW,219,12.0,13.0,60,0.00,,,0.00,1250,Wunderground v.1.15,2017-05-22 21:38:00,
2017-05-22 16:44:00,67.2,54.2,28.14,SW,229,12.0,12.0,63,0.00,,,0.00,1239,Wunderground v.1.15,2017-05-22 21:44:00,
2017-05-22 16:50:00,65.2,54.4,28.14,NNW,342,10.0,12.0,68,0.21,,,0.03,1143,Wunderground v.1.15,2017-05-22 21:50:00,
2017-05-22 16:56:00,62.5,53.0,28.14,NNE,33,6.0,23.0,71,0.07,,,0.03,1065,Wunderground v.1.15,2017-05-22 21:56:00,
2017-05-22 17:02:00,60.9,51.8,28.14,NW,309,1.0,23.0,72,0.05,,,0.04,995,Wunderground v.1.15,2017-05-22 22:02:00,
2017-05-22 17:08:00,60.3,51.6,28.14,NW,309,1.0,23.0,73,0.05,,,0.04,963,Wunderground v.1.15,2017-05-22 22:08:00,
2017-05-22 17:14:00,60.3,52.3,28.14,NW,308,0.0,23.0,75,0.04,,,0.04,963,Wunderground v.1.15,2017-05-22 22:14:00,
2017-05-22 17:20:00,60.3,52.7,28.14,NW,307,0.0,23.0,76,0.00,,,0.04,997,Wunderground v.1.15,2017-05-22 22:20:00,
2017-05-22 17:26:00,60.5,53.3,28.14,SSW,192,0.0,3.0,77,0.00,,,0.04,1004,Wunderground v.1.15,2017-05-22 22:26:00,
2017-05-22 17:32:00,61.1,53.5,28.14,SSE,167,4.0,12.0,76,0.00,,,0.04,1014,Wunderground v.1.15,2017-05-22 22:32:00,
2017-05-22 17:38:00,61.1,53.8,28.14,South,188,5.0,5.0,77,0.00,,,0.04,1004,Wunderground v.1.15,2017-05-22 22:38:00,
2017-05-22 17:50:00,60.4,53.9,28.14,SSW,199,4.0,4.0,79,0.00,,,0.04,1046,Wunderground v.1.15,2017-05-22 22:50:00,
2017-05-22 17:56:00,60.2,54.0,28.14,SSW,199,2.0,21.0,80,0.00,,,0.04,1048,Wunderground v.1.15,2017-05-22 22:56:00,
2017-05-22 18:02:00,60.2,54.7,28.14,SSW,199,0.0,21.0,82,0.00,,,0.04,1034,Wunderground v.1.15,2017-05-22 23:02:00,
2017-05-22 18:08:00,60.2,55.0,28.14,SSW,200,0.0,21.0,83,0.00,,,0.04,1037,Wunderground v.1.15,2017-05-22 23:08:00,
2017-05-22 18:14:00,60.2,55.0,28.14,SSW,201,0.0,21.0,83,0.00,,,0.04,1034,Wunderground v.1.15,2017-05-22 23:14:00,
2017-05-22 18:20:00,60.2,55.0,28.14,SSW,201,0.0,21.0,83,0.00,,,0.04,1046,Wunderground v.1.15,2017-05-22 23:20:00,
2017-05-22 18:26:00,60.3,55.1,28.14,SSW,200,0.0,0.0,83,0.00,,,0.04,1058,Wunderground v.1.15,2017-05-22 23:26:00,
2017-05-22 18:32:00,60.3,55.1,28.14,SSW,203,1.0,2.0,83,0.00,,,0.04,1063,Wunderground v.1.15,2017-05-22 23:32:00,
2017-05-22 18:38:00,60.4,54.9,28.14,SSW,207,2.0,2.0,82,0.00,,,0.04,1063,Wunderground v.1.15,2017-05-22 23:38:00,
2017-05-22 18:44:00,60.6,54.7,28.14,SSW,207,1.0,1.0,81,0.00,,,0.04,1074,Wunderground v.1.15,2017-05-22 23:44:00,
2017-05-22 18:50:00,60.8,54.9,28.14,SSW,207,0.0,1.0,81,0.00,,,0.04,1090,Wunderground v.1.15,2017-05-22 23:50:00,
2017-05-22 18:56:00,61.1,55.6,28.14,SSW,207,0.0,12.0,82,0.00,,,0.04,1120,Wunderground v.1.15,2017-05-22 23:56:00,
2017-05-22 19:02:00,61.0,55.8,28.14,SSW,202,2.0,12.0,83,0.00,,,0.04,1114,Wunderground v.1.15,2017-05-23 00:02:00,
2017-05-22 19:08:00,60.7,55.5,28.14,SSW,202,2.0,12.0,83,0.00,,,0.04,1104,Wunderground v.1.15,2017-05-23 00:08:00,
2017-05-22 19:14:00,60.8,55.9,28.14,SSW,202,1.0,1.0,84,0.00,,,0.04,1090,Wunderground v.1.15,2017-05-23 00:14:00,
2017-05-22 19:20:00,60.6,55.7,28.14,SSW,202,0.0,1.0,84,0.00,,,0.04,1111,Wunderground v.1.15,2017-05-23 00:20:00,
2017-05-22 19:26:00,60.7,55.8,28.14,SSW,202,0.0,0.0,84,0.00,,,0.04,1116,Wunderground v.1.15,2017-05-23 00:26:00,
2017-05-22 19:32:00,60.6,55.7,28.14,SSW,202,1.0,4.0,84,0.00,,,0.04,1109,Wunderground v.1.15,2017-05-23 00:32:00,
2017-05-22 19:38:00,60.3,55.8,28.14,SSW,202,1.0,4.0,85,0.00,,,0.04,1088,Wunderground v.1.15,2017-05-23 00:38:00,
2017-05-22 19:44:00,60.4,55.9,28.14,SSW,202,2.0,2.0,85,0.00,,,0.04,1141,Wunderground v.1.15,2017-05-23 00:44:00,
2017-05-22 19:50:00,60.4,56.2,28.14,SSW,202,2.0,3.0,86,0.00,,,0.04,1187,Wunderground v.1.15,2017-05-23 00:50:00,
2017-05-22 19:56:00,60.5,56.0,28.14,SSW,202,0.0,7.0,85,0.00,,,0.04,1236,Wunderground v.1.15,2017-05-23 00:56:00,
2017-05-22 20:02:00,60.7,56.2,28.14,SSW,202,0.0,7.0,85,0.00,,,0.04,1248,Wunderground v.1.15,2017-05-23 01:02:00,
2017-05-22 20:08:00,60.9,56.4,31.76,SSW,202,0.0,7.0,85,0.00,,,0.04,1252,Wunderground v.1.15,2017-05-23 01:08:00,
2017-05-22 20:14:00,61.3,56.4,31.76,SSW,202,0.0,7.0,84,0.00,,,0.04,1297,Wunderground v.1.15,2017-05-23 01:14:00,
2017-05-22 20:20:00,61.3,55.8,31.76,SSW,202,0.0,7.0,82,0.00,,,0.04,1318,Wunderground v.1.15,2017-05-23 01:20:00,
2017-05-22 20:26:00,61.2,55.3,31.76,SSW,202,0.0,0.0,81,0.00,,,0.04,1273,Wunderground v.1.15,2017-05-23 01:26:00,
2017-05-22 20:32:00,60.9,54.3,31.76,SSW,202,0.0,0.0,79,0.00,,,0.04,1222,Wunderground v.1.15,2017-05-23 01:32:00,
2017-05-22 20:38:00,60.7,53.4,31.76,SSW,202,0.0,0.0,77,0.00,,,0.04,1194,Wunderground v.1.15,2017-05-23 01:38:00,
2017-05-22 20:44:00,60.4,52.4,31.76,SSW,202,0.0,0.0,75,0.00,,,0.04,1171,Wunderground v.1.15,2017-05-23 01:44:00,
2017-05-22 20:50:00,60.0,51.3,31.76,SSW,202,0.0,0.0,73,0.00,,,0.04,1172,Wunderground v.1.15,2017-05-23 01:50:00,
2017-05-22 20:56:00,59.8,51.1,31.76,SSW,202,0.0,5.0,73,0.00,,,0.04,1164,Wunderground v.1.15,2017-05-23 01:56:00,
2017-05-22 21:02:00,59.6,50.9,31.76,SSW,202,0.0,5.0,73,0.00,,,0.04,1172,Wunderground v.1.15,2017-05-23 02:02:00,
2017-05-22 21:08:00,59.3,50.6,31.76,SSW,202,0.0,5.0,73,0.00,,,0.04,1178,Wunderground v.1.15,2017-05-23 02:08:00,
2017-05-22 21:14:00,58.9,49.9,31.76,SSW,202,0.0,5.0,72,0.00,,,0.04,1190,Wunderground v.1.15,2017-05-23 02:14:00,
2017-05-22 21:20:00,58.5,49.5,31.76,SSW,202,0.0,5.0,72,0.00,,,0.04,1206,Wunderground v.1.15,2017-05-23 02:20:00,